Location: Alma
(38.7220°N, 88.9090°W)
Time: 15:21:38
(UTC-06:00)

Explorer 11/Cluster Stage 4 - All Passes

Search period start: 19 November 2019 00:00
Search period end: 29 November 2019 00:00
Orbit: 467 x 1259 km, 28.8° (Epoch: 19 November)

Date Brightness Start Highest point End Pass type
(mag) Time Alt. Az. Time Alt. Az. Time Alt. Az.
19 Nov - 00:29:40 10° WSW 00:35:32 24° SSW 00:41:44 10° SSE night (unlit)
19 Nov - 18:55:48 10° SSW 18:59:39 20° SSE 19:04:07 10° ESE visible
19 Nov - 20:42:15 10° SW 20:47:37 34° S 20:54:02 10° ESE visible
19 Nov - 22:30:04 10° WSW 22:36:04 34° S 22:42:59 10° SE night (unlit)
20 Nov - 00:19:11 10° WSW 00:24:35 21° SSW 00:30:22 10° SSE night (unlit)
20 Nov - 18:45:04 10° SSW 18:48:52 21° SSE 18:53:16 10° ESE visible
20 Nov - 20:31:40 10° WSW 20:36:49 34° S 20:43:01 10° ESE visible
20 Nov - 22:19:31 10° WSW 22:25:13 31° S 22:31:49 10° SE night (unlit)
21 Nov - 00:08:50 10° WSW 00:13:40 19° SSW 00:18:51 10° SSE night (unlit)
21 Nov - 18:34:23 10° SSW 18:38:05 21° SSE 18:42:25 10° ESE visible
21 Nov - 20:21:07 10° WSW 20:26:02 32° S 20:31:59 10° ESE visible
21 Nov - 22:09:01 10° WSW 22:14:23 29° S 22:20:36 10° SE night (unlit)
21 Nov - 23:58:38 10° WSW 00:02:47 16° SSW 00:07:12 10° S night (unlit)
22 Nov - 18:23:44 10° SSW 18:27:21 22° SSE 18:31:34 10° ESE visible
22 Nov - 20:10:36 10° WSW 20:15:17 31° S 20:20:57 10° ESE visible
22 Nov - 21:58:34 10° WSW 22:03:34 26° SSW 22:09:22 10° SE night (unlit)
22 Nov - 23:48:42 10° SW 23:51:54 13° SSW 23:55:16 10° S night (unlit)
23 Nov - 18:13:08 10° SW 18:16:38 22° SSE 18:20:42 10° ESE visible
23 Nov - 20:00:06 10° WSW 20:04:32 29° S 20:09:54 10° ESE visible
23 Nov - 21:48:12 10° WSW 21:52:45 23° SSW 21:58:02 10° SE night (unlit)
23 Nov - 23:39:28 10° SW 23:41:02 11° SSW 23:42:38 10° SSW night (unlit)
24 Nov - 18:02:34 10° SW 18:05:56 22° SSE 18:09:51 10° ESE visible
24 Nov - 19:49:39 10° WSW 19:53:50 27° S 19:58:49 10° SE visible
24 Nov - 21:37:54 10° WSW 21:41:59 20° SSW 21:46:39 10° SSE night (unlit)
25 Nov - 17:52:00 10° SW 17:55:15 22° S 17:59:00 10° ESE visible
25 Nov - 19:39:14 10° WSW 19:43:08 25° S 19:47:44 10° SE visible
25 Nov - 21:27:44 10° SW 21:31:13 17° SSW 21:35:09 10° SSE night (unlit)
26 Nov - 15:56:18 10° S 15:57:04 10° SSE 15:57:53 10° SSE daylight
26 Nov - 17:41:29 10° SW 17:44:36 21° S 17:48:10 10° ESE visible
26 Nov - 19:28:51 10° WSW 19:32:26 22° S 19:36:38 10° SE visible
26 Nov - 21:17:46 10° SW 21:20:28 14° SSW 21:23:27 10° SSE night (unlit)
27 Nov - 15:45:07 10° S 15:46:24 11° SSE 15:47:44 10° SE daylight
27 Nov - 17:30:58 10° SW 17:33:57 21° S 17:37:19 10° SE visible
27 Nov - 19:18:31 10° SW 19:21:46 20° S 19:25:30 10° SE visible
27 Nov - 21:08:17 10° SW 21:09:44 11° SSW 21:11:16 10° S night (unlit)
28 Nov - 15:34:08 10° SSW 15:35:45 12° SSE 15:37:24 10° SE daylight
28 Nov - 17:20:28 10° SW 17:23:20 20° S 17:26:29 10° SE visible
28 Nov - 19:08:15 10° SW 19:11:06 17° S 19:14:19 10° SSE visible
